Вернуться в каталог

FLOCK 4H 22

АктивенНаукаSSO
NORAD 66725·PAYLOAD·🇺🇸 United States

Запущен Nov 28, 2025 с Vandenberg Space Force Base

Loading…

Ближайшие Пролёты (ближайшие 24 часа)

TLE

СвежийSource: CelesTrak SupGP

Эпоха: Sep 14, 2026, 12:45 UTC

1 66725C 25276BM  26257.53138889  .00010866  00000+0  48804-3 0  2579
2 66725  97.4099 329.6033 0004286  84.6216 229.9337 15.21216475    19

Отслеживайте FLOCK 4H 22 в реальном времени с AllMySat

Download on the App Store